Regional Weather Roundup
Issued by NWS Charleston, SC

Current Version | Previous Version | Graphics & Text | Print | Product List | Glossary On
Versions: 1 2 3 4 5 6 7 8 9 10 11 12 13 14 15 16 17 18 19 20 21 22 23 24 25 26 27 28 29 30 31 32 33 34 35 36 37 38 39 40 41 42 43 44 45 46 47 48 49 50
000
ASUS42 KCHS 272325
RWRCHS

REGIONAL WEATHER ROUNDUP
NATIONAL WEATHER SERVICE CHARLESTON SC
700 PM EDT WED AUG 27 2014

NOTE: "FAIR" INDICATES FEW OR NO CLOUDS BELOW 12,000 FEET WITH NO
SIGNIFICANT WEATHER AND/OR OBSTRUCTIONS TO VISIBILITY.

NOT ALL STATIONS ARE QUALITY CONTROLLED BY THE NATIONAL
WEATHER SERVICE. USE DATA WITH CAUTION...ESPECIALLY
DEWPOINT OBSERVATIONS.

SCZ027-030-031-034>040-042>050-280000-
...SOUTH CAROLINA...

CITY           SKY/WX    TMP DP  RH WIND       PRES   REMARKS
N CHARLESTON   CLEAR     86  59  39 N6        29.98R
WATERFRONT PRK   N/A     84 N/A N/A S8          N/A
FORT JOHNSON   NOT AVBL
MOUNT PLEASANT FAIR      84  64  51 N3        29.97S
JOHNS ISLAND   CLEAR     82  70  65 S7        29.98R
PINOPOLIS        N/A     93  59  31 CALM      29.90R HX  92
MONCKS CORNER    N/A     81  70  69 CALM      29.98S
SUMMERVILLE    FAIR      81  68  65 CALM      29.98S
BEAUFORT MCAS  MOSUNNY   88  57  34 NE5       29.98R
BEAUFORT ARPT  FAIR      86  63  45 NW5       29.97S
HILTON HEAD IS SUNNY     82  68  61 S5        29.99S
GEORGETOWN     NOT AVBL
WALTERBORO     CLEAR     86  54  32 CALM      29.98S
ORANGEBURG     SUNNY     88  52  29 NE5       29.98S
BARNWELL       FAIR      90  54  29 E5        29.98S
AIKEN          FAIR      88  57  35 NE8       30.02S
MANNING        FAIR      82  64  54 CALM      29.97S
KINGSTREE      NOT AVBL
COLUMBIA       SUNNY     91  50  24 NE6       29.97S
SUMTER         SUNNY     88  55  32 N5        29.96S
FLORENCE       CLEAR     88  52  29 NE5       29.97R
MYRTLE BEACH   PTCLDY    86  63  45 N8        29.96S
N MYRTLE BEACH NOT AVBL

$$

GAZ063-065-086>088-099>101-113>116-118-119-134-136>141-150-280000-
...GEORGIA...

CITY           SKY/WX    TMP DP  RH WIND       PRES   REMARKS
SAVANNAH ARPT  SUNNY     87  55  33 NE5       29.98S
HUNTER AAF     SUNNY     85  64  50 SE6       29.96S
FORT STEWART   SUNNY     87  56  34 NE5       29.97R
STATESBORO     NOT AVBL
SYLVANIA       CLEAR     88  61  39 CALM      29.99S
CLAXTON        NOT AVBL
THOMSON        SUNNY     87  63  45 CALM      30.03S
AUGUSTA-BUSH   SUNNY     90  51  26 E5        29.96S
AUGUSTA-DANIEL SUNNY     92  48  22 NE9       29.98F
SWAINSBORO     FAIR      90  59  35 E3        30.00S
VIDALIA          N/A     86  59  39 NE6       29.99S
ALMA           SUNNY     90  54  29 N3        29.97R
WAYCROSS       SUNNY     90  62  39 E5        29.97S HX  90
JESUP            N/A     90  63  40 CALM      29.98R HX  90
BRUNSWICK      SUNNY     82  59  44 E7        29.99S
SAINT SIMONS   SUNNY     81  62  52 E9        29.98S

$$

SCZ027-028-034-036>038-045-046-048>050-GAZ119-141-280000-
...LAKE AND SUPPLEMENTAL COASTAL OBSERVATIONS...

STATION/POSITION TIME  TEMP    WIND        PRES    WAVE   SWELL
                       AIR SEA DIR/SP/G            HT/PER HT/PER/DIR
                 (UTC) (F)     (DEG/KT/KT) (MB)    (FT/S) (FT/S/D)
UPR LAKE MARION  NOT AVBL
WINYAH BAY       2200   85     340/  4     1014.0S
LAKE MURRAY      2300   89     360/  3/  6 1014.6S
ACE BASIN NERRS  2200   89     330/  1     1015.0S
FORT PULASKI     2300   83     120/  3/  4 1015.4S
SAPELO ISLAND    2200   83      80/  7     1016.0S

$$

ANZ835-935-AMZ111-154-330-350-352-354-374-450-454-472-280000-
...C-MAN AND BUOY OBSERVATIONS...

STATION/POSITION TIME  TEMP    WIND        PRES    WAVE   SWELL
                       AIR SEA DIR/SP/G            HT/PER HT/PER/DIR
                 (UTC) (F)     (DEG/KT/KT) (MB)    (FT/S) (FT/S/D)
FOLLY BEACH CMAN 2300   81     190/  6/  7 1015.5R
BUOY 41004       2300   82 82   30/  6/  6 1014.5R   6/10   7/10
BUOY 41008       2300   81 84   80/  8/ 10 1015.3F   4/ 6   3/ 80/ 6
5E ST. MARYS GA  2300      84                N/A     4/10   2/100/11
FRYING PAN BUOY  NOT AVBL
BUOY 41025       2300   76     350/ 21/ 27 1011.9R  11/14   8/130/14
CAPE LOOKOUT NC  2300   80      30/ 11/ 13 1013.2R
BUOY 41002       2250   81 81  340/ 17/ 21 1011.0R  10/ 8   5/ 70/10
BUOY 41010       2300   82 84   10/  8/ 10 1014.4R   9/10  10/ 50/10
BUOY 41012       NOT AVBL
ST AUGUSTINE FL  2300   80      40/ 10/ 12 1016.0R
CAPERS NEARSHORE 2200   84     190/  4/  4   N/A
FRIPP NEARSHORE  NOT AVBL


$$


USA.gov is the U.S. government's official web portal to all federal, state and local government web resources and services.